Theta_e
344 352 357 357 359 359 359 360 361 361 360 359 359 360 360 360 360 359 359 359 359 359 359 361 361 360 362 361 361 360 356 356 357 358 360 361 361 358 357 358 359 354 358
349 354 359 359 359 360 361 360 361 361 360 360 360 360 360 360 360 359 359 359 359 359 360 359 360 360 361 361 361 360 360 360 360 361 361 362 361 358 359 359 358 355 357
351 354 357 361 360 359 361 361 361 361 360 360 360 360 360 360 359 359 358 358 358 359 360 360 360 361 361 360 360 360 361 361 361 361 361 356 356 357 358 360 358 359 357
352 352 355 361 361 360 360 361 361 360 360 361 360 360 360 360 359 359 360 359 358 358 359 360 359 359 360 360 360 360 360 361 360 360 355 355 353 359 360 359 358 357 358
351 353 355 360 361 361 360 360 361 361 360 361 360 361 360 359 359 360 359 359 359 359 360 359 360 360 361 362 361 361 361 361 360 356 355 355 357 357 359 358 357 358 357
351 354 358 360 361 361 361 360 361 360 360 360 361 360 360 360 358 360 359 361 360 360 359 359 359 359 359 361 361 361 360 360 358 354 355 357 356 359 358 358 358 358 358
350 355 357 362 361 361 361 360 360 360 359 359 360 360 360 359 359 360 360 359 358 358 358 359 360 360 360 360 360 359 360 359 352 353 354 356 358 359 358 358 357 356 354
351 355 356 361 362 362 361 361 359 359 360 361 360 360 358 360 360 359 358 357 357 357 358 358 358 358 361 360 359 358 358 357 351 350 351 353 358 357 354 354 354 354 354
351 351 352 354 358 361 361 362 361 361 361 361 361 361 361 361 360 360 358 357 355 355 356 356 355 356 358 359 358 356 356 355 348 351 353 352 357 354 353 353 352 352 352
347 349 348 350 353 354 355 361 361 361 361 361 361 361 361 360 360 360 360 361 357 355 356 356 356 357 358 361 360 353 354 353 346 349 351 353 356 353 351 352 352 352 352
347 346 345 348 350 352 353 358 361 362 360 360 360 362 355 352 354 355 360 361 358 358 357 356 356 359 357 359 358 358 354 347 346 347 348 353 354 350 351 351 351 351 352
345 346 346 347 349 351 356 352 353 355 351 353 352 351 351 350 356 355 354 359 360 361 360 361 360 361 357 353 351 356 347 346 345 345 347 353 350 350 350 351 352 353 354
344 346 345 346 348 349 350 350 350 352 352 351 350 350 350 349 350 346 344 349 349 354 352 352 352 355 354 351 352 344 342 341 343 344 346 351 351 350 350 351 352 354 355
342 345 345 346 347 347 349 349 348 350 350 349 350 349 348 346 345 345 346 345 344 347 348 349 349 351 351 352 350 339 338 340 340 344 346 352 353 352 352 353 354 356 358
340 343 345 345 345 347 348 347 347 348 349 350 350 349 349 347 343 345 343 342 345 346 345 348 346 347 346 343 347 347 337 340 341 344 347 353 354 355 355 355 357 359 359
341 342 344 344 345 345 346 346 346 346 348 349 349 348 349 344 344 345 345 344 346 348 349 348 346 345 344 342 343 338 338 339 341 344 346 347 354 357 356 357 359 360 360
340 342 342 344 345 344 345 345 345 346 348 346 347 349 349 350 344 343 345 348 350 351 352 348 346 346 346 345 343 339 338 339 338 340 342 344 346 349 355 357 359 360 362
339 341 342 347 345 344 344 345 346 346 344 341 345 349 350 348 343 345 347 347 348 350 350 349 348 343 343 346 345 345 347 342 341 341 342 345 346 348 349 350 353 354 359
340 341 342 344 343 343 343 345 344 344 341 343 347 349 348 347 344 347 349 345 346 351 353 350 343 345 344 346 346 346 347 348 347 345 345 346 346 349 351 351 356 358 359
341 343 343 343 342 341 341 342 342 340 339 345 348 349 348 350 348 347 346 340 346 350 352 351 351 339 342 343 342 344 344 345 349 346 347 348 348 349 351 353 354 356 356
341 342 342 340 342 343 341 339 339 339 340 343 347 349 345 346 345 349 338 343 349 348 352 353 351 341 343 345 345 342 342 343 344 346 347 348 348 350 353 357 358 358 359
339 341 341 341 342 342 342 341 341 342 343 344 347 349 350 345 348 349 340 346 348 350 353 353 351 348 340 339 346 340 336 340 340 341 343 344 345 348 349 351 351 350 351
337 339 341 340 343 342 344 343 343 345 345 345 346 348 348 343 350 352 351 349 346 348 350 353 354 351 341 339 340 343 336 336 337 340 340 341 342 344 345 346 348 351 351
337 341 343 341 342 342 344 342 342 340 338 343 344 347 348 350 351 351 351 348 342 347 353 355 354 353 349 340 342 341 338 341 338 334 339 339 341 342 344 344 345 348 349
339 341 342 341 342 342 342 343 341 339 341 342 345 345 346 349 351 353 351 348 339 350 353 354 354 353 350 348 340 341 340 338 335 337 336 337 339 343 346 345 344 345 345
339 342 342 341 341 341 341 341 341 339 339 341 343 343 342 346 347 351 351 350 350 352 353 355 353 355 351 347 347 345 340 338 337 335 331 330 330 337 342 344 347 345 349
Wind_Speed
2 3 6 6 5 8 9 9 11 10 13 12 11 11 11 11 11 10 10 10 10 10 11 12 14 13 14 13 13 12 14 14 13 14 13 14 16 16 14 14 13 11 12
6 4 7 8 8 9 10 10 11 12 12 12 12 11 11 11 11 10 11 10 8 11 11 12 12 13 13 14 13 12 13 14 12 12 13 13 15 15 12 13 12 11 12
6 4 5 8 9 10 10 12 11 11 12 12 12 11 11 10 11 11 11 10 9 12 12 12 13 12 13 13 13 13 12 11 13 13 13 6 6 13 12 12 12 12 10
6 5 5 8 10 10 10 11 11 12 11 12 12 11 9 10 10 11 11 10 11 11 11 13 12 11 12 14 14 15 14 13 14 12 6 5 7 13 13 11 11 11 10
6 5 5 10 12 10 11 10 11 11 11 11 11 9 11 10 10 11 11 11 12 12 12 13 15 15 15 16 15 15 15 14 13 10 7 6 5 9 11 10 10 10 10
6 5 8 11 12 11 12 10 12 10 11 10 10 9 9 10 10 10 10 12 12 11 11 12 14 13 12 14 13 13 14 13 11 8 7 7 4 9 10 9 11 12 11
5 4 5 11 13 13 12 12 11 11 11 10 9 8 8 8 8 8 12 11 11 10 10 10 12 13 11 11 12 11 12 12 7 7 7 7 6 11 11 11 11 11 9
5 4 4 9 12 14 12 12 12 10 9 9 7 8 8 8 11 12 11 10 10 10 9 9 11 12 12 10 10 10 10 10 7 6 6 5 8 10 9 9 9 9 8
5 5 5 4 7 11 13 12 12 11 9 8 8 8 8 11 10 11 10 10 10 9 8 9 10 10 10 7 7 8 9 10 6 3 5 3 7 8 8 8 8 7 6
5 4 4 4 4 5 5 12 11 10 8 9 9 8 8 9 10 10 7 8 10 9 9 8 7 7 7 8 10 10 10 9 3 3 3 3 6 7 6 7 6 6 5
4 4 3 3 4 3 2 8 9 9 9 8 7 9 8 3 4 5 6 8 9 9 8 6 4 5 8 9 10 9 8 3 3 2 1 3 3 5 5 5 4 4 5
5 4 4 4 4 2 3 5 4 4 4 4 4 5 3 4 4 6 8 12 11 10 8 7 6 6 5 2 1 2 3 3 2 1 0 0 2 2 3 3 4 5 6
5 4 5 5 4 3 4 3 2 2 2 3 4 4 3 3 3 3 3 3 3 7 3 4 4 2 3 2 2 2 4 3 1 1 1 2 2 1 3 4 4 5 6
6 5 5 5 5 4 3 3 3 2 1 2 2 4 2 2 3 3 3 3 3 3 4 3 2 3 2 1 3 4 4 3 2 0 2 5 4 3 2 3 4 6 7
6 6 6 5 5 4 4 3 3 2 2 1 1 1 2 2 3 2 2 1 2 2 2 3 2 3 4 3 3 3 3 2 2 1 1 6 5 6 6 6 7 8 9
6 6 6 6 5 5 4 4 3 3 1 1 0 1 2 2 2 2 3 3 3 2 2 2 3 4 4 4 4 3 2 1 2 2 1 2 7 7 8 9 10 11 11
5 6 7 6 6 6 5 4 3 2 3 2 2 2 3 1 1 1 0 2 3 3 2 2 3 3 4 4 4 3 1 0 0 2 1 1 2 5 7 6 8 9 10
6 8 6 7 6 6 5 4 4 3 3 2 2 0 2 3 2 2 2 3 3 2 2 2 2 3 3 2 2 2 1 0 1 2 1 2 2 2 4 4 6 8 8
8 7 6 6 7 6 6 4 4 4 2 2 0 1 4 3 3 2 2 1 3 3 3 2 3 1 2 2 2 2 1 1 0 1 3 4 4 4 3 6 10 10 12
7 7 6 5 7 5 3 4 3 3 1 1 2 1 1 1 4 2 1 4 4 3 3 3 3 4 2 3 3 4 4 2 1 2 1 1 3 5 4 3 3 4 8
6 6 7 7 6 5 2 3 2 3 2 1 1 3 2 1 2 2 3 2 3 3 3 3 2 4 4 2 2 2 4 5 6 4 3 2 1 2 2 2 1 3 3
8 8 6 7 7 4 3 3 3 3 2 2 2 2 3 3 3 3 4 1 3 3 4 4 3 1 2 4 2 1 2 3 3 3 2 3 6 5 5 5 5 4 4
9 11 8 7 6 5 5 5 3 4 3 2 1 1 3 5 4 3 3 2 3 2 2 3 3 3 2 4 5 2 1 2 2 1 1 1 3 3 2 4 5 6 5
10 8 7 8 7 5 6 5 7 5 4 3 3 2 3 4 3 3 4 3 3 1 2 2 3 2 2 2 1 4 3 1 2 2 1 1 2 4 4 3 5 5 5
10 9 7 7 7 5 6 6 6 4 3 3 3 4 2 1 2 4 4 3 2 1 1 1 3 4 2 2 2 0 2 2 2 1 3 3 2 2 3 3 4 4 3
7 7 8 9 7 6 6 6 8 8 6 4 3 3 2 1 1 1 2 2 3 3 2 1 2 4 3 3 2 2 1 1 1 1 0 1 2 3 3 3 4 4 3
Wind_Direction
190 167 154 143 129 117 113 105 103 98 107 106 104 97 100 107 100 90 92 92 87 98 93 87 86 89 85 83 92 99 102 104 104 105 102 91 85 81 79 80 78 83 83
123 154 152 126 121 118 114 111 107 107 109 112 99 94 96 93 98 92 89 91 99 94 91 93 92 88 89 85 92 102 112 113 113 103 90 88 90 87 80 80 88 82 80
112 136 121 120 120 118 120 114 118 107 109 106 106 106 102 94 94 93 94 98 99 99 95 96 95 98 89 79 83 94 110 114 93 84 90 90 84 88 93 82 79 76 80
126 118 111 127 126 118 113 116 117 116 115 115 110 105 109 101 101 93 94 93 90 94 96 91 85 95 94 88 88 89 88 88 86 76 67 60 83 84 84 81 81 80 74
116 123 141 137 124 124 118 116 117 121 114 117 116 109 104 106 97 94 87 90 88 82 79 80 83 80 83 82 80 88 86 84 81 71 64 64 56 85 86 82 77 75 69
120 133 137 129 129 130 122 123 122 112 113 114 113 108 101 91 91 90 90 87 82 80 73 67 73 76 81 85 88 85 87 88 78 68 61 66 79 94 81 79 70 69 58
126 144 132 137 130 132 130 131 123 126 126 122 119 109 100 94 90 99 85 79 84 86 79 70 67 60 83 91 83 90 95 92 79 73 68 58 63 78 78 69 58 58 55
129 126 136 131 130 132 133 132 132 126 125 134 107 96 101 111 88 78 81 87 91 88 82 72 67 64 78 91 93 97 97 91 79 74 70 58 59 66 64 64 61 57 49
99 102 94 102 129 122 130 135 134 136 137 117 111 112 90 80 81 78 79 83 85 92 86 76 67 65 76 82 114 105 98 88 70 65 71 58 71 75 72 67 60 55 48
85 98 95 66 98 107 147 138 140 139 120 104 103 106 99 82 79 79 56 79 84 88 86 78 76 79 72 70 128 105 105 98 85 72 68 70 73 77 74 67 58 49 37
124 121 119 107 78 79 98 132 135 139 128 121 103 85 58 47 51 48 71 78 86 86 83 79 77 76 71 68 125 123 106 101 107 85 71 80 75 86 79 69 57 35 17
157 146 148 136 134 135 71 73 74 97 76 70 91 82 68 52 41 49 33 33 29 31 21 16 7 34 55 69 30 133 116 122 116 108 26 5 41 71 65 44 22 1 349
157 159 163 153 145 106 105 95 65 63 62 69 83 67 56 52 38 42 26 18 26 9 359 357 348 2 11 69 90 115 131 125 103 73 320 279 287 350 14 2 347 328 324
167 169 165 158 145 128 116 101 90 100 69 61 51 51 61 51 42 33 28 13 30 351 349 350 346 334 336 281 139 132 139 130 143 137 270 251 257 275 296 302 305 314 319
175 170 174 163 159 151 139 129 122 108 65 46 352 60 98 74 49 26 37 64 344 354 347 1 17 34 30 40 126 146 154 142 156 211 250 278 272 281 292 309 317 321 323
176 180 163 176 169 156 154 156 141 138 169 104 288 227 93 92 97 51 347 350 340 348 334 35 31 49 50 69 72 81 109 147 199 200 212 304 305 306 324 330 329 320 322
182 166 176 174 165 163 169 156 145 164 125 161 213 204 198 119 100 57 44 348 342 351 323 73 52 59 54 51 78 100 81 27 263 264 248 262 306 324 307 308 306 306 307
155 173 170 181 179 171 175 166 140 161 168 183 245 280 220 172 142 103 20 13 346 359 50 64 97 91 88 87 68 34 40 216 243 221 219 230 247 271 299 289 279 287 298
166 160 176 170 169 184 179 164 135 133 129 166 187 151 155 180 138 45 26 328 357 17 51 63 71 119 115 74 48 90 99 178 224 139 228 241 245 243 244 277 282 295 304
161 159 169 161 159 164 146 114 108 114 129 195 151 117 193 116 108 86 352 27 359 7 22 34 59 53 58 45 12 35 31 25 34 61 17 265 242 253 249 267 283 288 298
157 163 168 154 165 144 139 119 112 160 159 225 170 155 167 358 159 135 66 39 14 23 2 21 69 70 28 3 97 51 40 46 53 31 3 345 225 235 298 52 303 23 359
165 185 171 179 170 181 140 136 133 141 148 147 143 179 212 172 199 139 118 91 53 38 19 46 72 102 65 25 78 76 19 336 36 36 17 15 11 2 359 3 343 11 344
179 185 183 174 189 172 149 115 84 84 73 80 102 182 211 186 191 121 132 115 69 62 31 26 59 85 124 52 57 108 82 249 327 284 301 18 30 357 333 324 317 325 329
195 172 175 166 181 183 159 148 156 151 148 192 165 182 195 199 185 139 135 129 115 99 40 10 56 75 125 96 41 63 71 167 179 324 286 4 2 264 294 299 304 295 309
175 176 171 163 172 176 176 165 147 149 162 149 147 166 185 252 210 150 156 148 133 103 88 28 57 55 59 102 103 290 24 54 73 122 294 326 302 250 262 290 327 311 326
166 167 165 173 175 179 182 171 167 165 167 149 163 178 188 195 273 236 184 158 190 173 155 313 79 71 73 81 102 123 145 206 287 125 210 4 284 299 296 294 35 328 305